This is the latest recevied weather packets stored in our database for station/object SQ6RR-12. If no packets are shown the sender has not sent any weather packets the latest 10 day(s).
| Time | Temp. | Humidity | Pressure | Rain* | Wind** | Luminosity | Snow |
|---|---|---|---|---|---|---|---|
| 1777783928 | 10.56° C | 89% | 1019.2 hPa | 0 mm | - | - | - |
| 1777783662 | 10.56° C | 91% | 1019.2 hPa | 0 mm | - | - | - |
| 1777783387 | 10.56° C | 93% | 1019.2 hPa | 0 mm | - | - | - |
| 1777783117 | 10° C | 92% | 1019.2 hPa | 0 mm | - | - | - |
| 1777782837 | 10° C | 96% | 1019.1 hPa | 0 mm | - | - | - |
| 1777782584 | 8.89° C | 99% | 1019.1 hPa | 0 mm | - | - | - |
| 1777782292 | 10° C | 95% | 1019.1 hPa | 0 mm | - | - | - |
| 1777782032 | 10° C | 94% | 1019.1 hPa | 0 mm | - | - | - |
| 1777781753 | 9.44° C | 99% | 1019.1 hPa | 0 mm | - | - | - |
| 1777781495 | 8.33° C | 10% | 1019.1 hPa | 0 mm | - | - | - |
| 1777781237 | 7.78° C | 10% | 1019.1 hPa | 0 mm | - | - | - |
| 1777780962 | 7.78° C | 10% | 1019.2 hPa | 0 mm | - | - | - |
| 1777780707 | 8.33° C | 10% | 1019.1 hPa | 0 mm | - | - | - |
| 1777780447 | 7.22° C | 10% | 1019.1 hPa | 0 mm | - | - | - |
| 1777780182 | 7.22° C | 10% | 1019.1 hPa | 0 mm | - | - | - |
| 1777779900 | 7.22° C | 10% | 1019.1 hPa | 0 mm | - | - | - |
| 1777779636 | 7.22° C | 10% | 1019.2 hPa | 0 mm | - | - | - |
| 1777779371 | 7.78° C | 10% | 1019.1 hPa | 0 mm | - | - | - |
| 1777779107 | 7.78° C | 10% | 1019.1 hPa | 0 mm | - | - | - |
| 1777778847 | 7.78° C | 10% | 1019.1 hPa | 0 mm | - | - | - |
| 1777778587 | 7.78° C | 95% | 1019.2 hPa | 0 mm | - | - | - |
| 1777778330 | 8.89° C | 94% | 1019.1 hPa | 0 mm | - | - | - |
| 1777778067 | 8.89° C | 96% | 1019.1 hPa | 0 mm | - | - | - |
| 1777777805 | 8.33° C | 97% | 1019.2 hPa | 0 mm | - | - | - |
| 1777777526 | 8.33° C | 97% | 1019.1 hPa | 0 mm | - | - | - |
* Rain latest hour (hover to see other rain measurements)
** Current wind speed in m/s (hover to see current wind gust speed)